Flag for Canada Weather past 2 weeks in Kugluktuk, Nunavut Territory, Canada

Now
-26 °F

Snow flurries. Clear.


Feels Like: -42 °F
Forecast: -27 / -23 °F
Wind: 6 mph from Northwest

Location: Coppermine

Current Time: Jan 29, 2015 at 11:29:08 PM

Latest Report: Jan 29, 2015 at 11:00 PM


Visibility: 8 mi

Pressure: 30.55 "Hg

Humidity: 67%

Dew point: -33 °F

Location of KugluktukLocation

Historic Weather in Kugluktuk — Graph

°F

Kugluktuk temperature yesterday

Maximum temperature yesterday: -9 °F (at 10:00 PM)
Minimum temperature yesterday: -29 °F (at 3:00 AM)
Average temperature yesterday: -20 °F

Past Weeks' High & Low Weather Summary

 TemperatureHumidityPressure
High0 °F (Jan 21, 4:00 PM)84% (Jan 21, 10:00 AM)30.52 "Hg (Jan 21, 10:00 AM)
Low-35 °F (Jan 19, 1:00 AM)61% (Jan 28, 1:00 AM)29.43 "Hg (Jan 21, 8:00 PM)
Average-19 °F72%29.97 "Hg
* Reported Jan 14 10:00 PM — Jan 29 10:00 PM, Kugluktuk, Weather by CustomWeather, © 2014

Note: Actual official high and low records may vary slightly from our data, if they occured in-between our weather recording intervals... More about our weather records

Advertising

Kugluktuk weather history for previous 24 hours

 ConditionsComfort  
Time TempWeatherWind HumidityBarometerVisibility
10:00 PM
Jan 29
-27 °FSnow flurries. Clear.10 mph67%30.52 "Hg8 mi
9:00 PM-26 °FSnow flurries. Clear.12 mph67%30.50 "Hg5 mi
8:00 PM-24 °FSnow flurries. Clear.16 mph68%30.47 "Hg4 mi
7:00 PM-26 °FSnow flurries. Clear.14 mph75%30.45 "Hg4 mi
6:51 PM-24 °FSnow flurries. Clear.17 mph68%30.44 "Hg3 mi
6:00 PM-22 °FSnow flurries. Clear.18 mph68%30.42 "Hg2 mi
5:00 PM-22 °FSnow flurries. Low level haze.17 mph75%30.39 "Hg3 mi
4:00 PM-20 °FSnow flurries. Low level haze.21 mph68%30.34 "Hg4 mi
3:00 PM-20 °FSnow flurries. Low level haze.24 mph75%30.31 "Hg6 mi
2:00 PM-18 °FSnow flurries. Low level haze.21 mph69%30.28 "Hg5 mi
1:00 PM-15 °FSnow flurries. Broken clouds.20 mph69%30.25 "Hg4 mi
12:52 PM-15 °FSnow flurries. Broken clouds.21 mph69%30.25 "Hg4 mi
12:00 PM-15 °FSnow flurries. Low level haze.22 mph76%30.22 "Hg4 mi
11:00 AM-15 °FSnow flurries. Low level haze.22 mph69%30.19 "Hg5 mi
10:00 AM-13 °FSnow flurries. Low level haze.30 mph76%30.17 "Hg5 mi
9:00 AM-11 °FSnow flurries. Low level haze.26 mph70%30.16 "Hg3 mi
8:00 AM-9 °FSnow flurries. Clear.31 mph77%30.14 "Hg1 mi
7:57 AM-9 °FSnow flurries. Clear.30 mph84%30.14 "Hg1 mi
7:00 AM-8 °FSnow flurries. Clear.28 mph77%30.14 "Hg0 mi
6:00 AM-8 °FLight snow. Ice fog.28 mph77%30.13 "Hg0 mi
5:00 AM-8 °FLight snow. Ice fog.28 mph77%30.12 "Hg0 mi
4:00 AM-8 °FLight snow. Ice fog.28 mph77%30.11 "Hg0 mi
3:00 AM-8 °FLight snow. Ice fog.26 mph77%30.11 "Hg0 mi
2:00 AM-8 °FLight snow. Ice fog.30 mph77%30.10 "Hg0 mi
1:00 AM-8 °FLight snow. Ice fog.26 mph77%30.10 "Hg0 mi
12:00 AM-8 °FLight snow. Ice fog.26 mph77%30.10 "Hg0 mi
11:00 PM
Jan 28
-9 °FLight snow. Ice fog.25 mph77%30.09 "Hg0 mi
Weather by CustomWeather, © 2014

See weather overviewHow to use our weather pages